Weather History for Lewisburg, WV

Change the Weather History Date:

Wednesday, June 4, 2014

  Actual Average Record
Temperature  
Mean Temperature 70 °F 64 °F  
Max Temperature 79 °F 76 °F 85 °F (1973)
Min Temperature 61 °F 52 °F 43 °F (1988)
Degree Days  
Heating Degree Days 0    
Month to date heating degree days 3  
Since 1 June heating degree days 3  
Since 1 July heating degree days 4704  
Cooling Degree Days 5    
Month to date cooling degree days 8  
Year to date cooling degree days 41  
Since 1 June cooling degree days 8  
Growing Degree Days 20 (Base 50)    
Moisture  
Dew Point 61 °F    
Average Humidity 72    
Maximum Humidity 93    
Minimum Humidity 50    
Precipitation  
Precipitation 1.95 in 0.13 in 1.95 in (2014)
Month to date precipitation 1.96 0.52  
Year to date precipitation 12.89 17.70  
Snow  
Snow 0.00 in - - ()
Month to date snowfall 0.0  
Since 1 June snowfall 0.0  
Since 1 July snowfall 40.4  
Snow Depth 0.00 in    
Sea Level Pressure  
Sea Level Pressure 29.95 in    
Wind  
Wind Speed 3 mph (SW)    
Max Wind Speed 13 mph    
Max Gust Speed 25 mph    
Visibility 8 miles    
Events Rain , Thunderstorm    
T = Trace of Precipitation, MM = Missing Value Source: NWS Daily Summary

Daily Weather History Graph

Daily Weather History Graph

Search for Another Location

Airport:

Trip Planner

Search our weather history database for the weather conditions in past years. The results will help you decide how hot, cold, wet, or windy it might be!

Date:

Astronomy

Jun. 04, 2014 Rise Set
Actual Time 6:00 AM EDT 8:40 PM EDT
Civil Twilight 5:29 AM EDT 9:10 PM EDT
Nautical Twilight 4:50 AM EDT 9:49 PM EDT
Astronomical Twilight 4:07 AM EDT 10:33 PM EDT
Moon 12:13 PM EDT (6/4) 12:42 AM EDT (6/4)
Length of Visible Light 15h 41m
Length of Day
14h 39m
Waxing Crescent, 39% of the Moon is Illuminated
Jun 4
Waxing Crescent
Jun 5
First Quarter
Jun 13
Full
Jun 19
Last Quarter
Jun 27
New

Hourly Weather History & Observations

Time (EDT) Temp. Dew Point Humidity Pressure Visibility Wind Dir Wind Speed Gust Speed Precip Events Conditions
12:15 AM 63.0 °F 59.5 °F 89% 30.03 in 10.0 mi Calm Calm - N/A   Clear
12:35 AM 62.4 °F 59.2 °F 89% 30.03 in 7.0 mi Calm Calm - N/A   Clear
12:55 AM 65.7 °F 60.3 °F 83% 30.03 in 10.0 mi Calm Calm - N/A   Clear
1:15 AM 63.1 °F 59.2 °F 87% 30.02 in 10.0 mi Calm Calm - N/A   Scattered Clouds
1:35 AM 62.8 °F 59.4 °F 89% 30.02 in 10.0 mi Calm Calm - N/A   Mostly Cloudy
1:55 AM 63.0 °F 59.5 °F 89% 30.01 in 10.0 mi Calm Calm - N/A   Mostly Cloudy
2:15 AM 62.8 °F 59.4 °F 89% 30.01 in 7.0 mi SW 3.5 mph - N/A   Scattered Clouds
2:35 AM 63.7 °F 59.9 °F 87% 30.00 in 10.0 mi Calm Calm - N/A   Scattered Clouds
2:55 AM 62.1 °F 59.0 °F 90% 30.01 in 7.0 mi Calm Calm - N/A   Mostly Cloudy
3:15 AM 63.9 °F 60.3 °F 88% 30.01 in 10.0 mi Calm Calm - N/A   Overcast
3:35 AM 64.6 °F 59.9 °F 85% 30.00 in 10.0 mi SW 3.5 mph - N/A   Mostly Cloudy
3:55 AM 64.6 °F 60.4 °F 86% 30.01 in 10.0 mi Calm Calm - N/A   Scattered Clouds
4:15 AM 63.1 °F 59.4 °F 87% 30.01 in 10.0 mi Calm Calm - N/A   Clear
4:35 AM 61.3 °F 58.6 °F 91% 30.01 in 7.0 mi Calm Calm - N/A   Scattered Clouds
5:15 AM 63.7 °F 60.6 °F 90% 30.01 in 7.0 mi WSW 4.6 mph - 0.01 in Rain Rain
5:35 AM 63.1 °F 59.5 °F 88% 30.01 in 10.0 mi Calm Calm - 0.01 in   Overcast
5:55 AM 62.1 °F 59.4 °F 91% 30.01 in 5.0 mi SSW 5.8 mph - 0.01 in   Scattered Clouds
6:15 AM 62.1 °F 59.4 °F 91% 30.01 in 7.0 mi SSW 3.5 mph - N/A   Scattered Clouds
6:35 AM 62.1 °F 59.2 °F 90% 30.01 in 7.0 mi SW 4.6 mph - N/A   Scattered Clouds
6:55 AM 61.9 °F 59.4 °F 91% 30.01 in 5.0 mi Calm Calm - N/A   Clear
7:15 AM 62.8 °F 60.1 °F 91% 30.02 in 5.0 mi Calm Calm - N/A   Scattered Clouds
7:35 AM 63.3 °F 60.8 °F 91% 30.02 in 5.0 mi Calm Calm - N/A   Scattered Clouds
7:55 AM 64.2 °F 61.0 °F 89% 30.01 in 7.0 mi Calm Calm - N/A   Scattered Clouds
8:15 AM 64.9 °F 61.9 °F 90% 30.02 in 7.0 mi South 4.6 mph - N/A   Scattered Clouds
8:35 AM 66.7 °F 61.9 °F 84% 30.02 in 10.0 mi SW 5.8 mph - N/A   Mostly Cloudy
8:55 AM 66.4 °F 61.9 °F 85% 30.03 in 10.0 mi WSW 5.8 mph - N/A   Overcast
9:15 AM 67.6 °F 62.1 °F 82% 30.02 in 10.0 mi SW 6.9 mph - N/A   Scattered Clouds
9:35 AM 68.5 °F 61.9 °F 79% 30.01 in 10.0 mi Calm Calm - N/A   Mostly Cloudy
9:55 AM 69.1 °F 61.7 °F 77% 30.00 in 10.0 mi SW 3.5 mph - N/A   Mostly Cloudy
10:15 AM 70.2 °F 61.2 °F 73% 30.00 in 10.0 mi SSW 5.8 mph - N/A   Mostly Cloudy
10:35 AM 69.4 °F 61.9 °F 77% 30.00 in 10.0 mi South 4.6 mph - N/A   Mostly Cloudy
10:55 AM 69.8 °F 61.9 °F 76% 30.00 in 10.0 mi SSW 5.8 mph - N/A   Overcast
11:15 AM 70.5 °F 62.6 °F 76% 30.00 in 10.0 mi South 6.9 mph - N/A   Mostly Cloudy
11:35 AM 71.2 °F 61.3 °F 71% 30.00 in 10.0 mi SW 9.2 mph - N/A   Mostly Cloudy
11:55 AM 71.6 °F 61.9 °F 71% 30.00 in 10.0 mi SW 8.1 mph - N/A   Mostly Cloudy
12:15 PM 71.8 °F 62.1 °F 71% 29.99 in 10.0 mi SSW 6.9 mph - N/A   Mostly Cloudy
12:35 PM 71.8 °F 62.2 °F 72% 29.98 in 10.0 mi SW 8.1 mph - N/A   Mostly Cloudy
12:55 PM 72.9 °F 62.1 °F 69% 29.98 in 10.0 mi SW 5.8 mph - N/A   Mostly Cloudy
1:15 PM 73.0 °F 62.1 °F 68% 29.97 in 10.0 mi WSW 6.9 mph - N/A   Mostly Cloudy
1:35 PM 74.5 °F 61.3 °F 63% 29.96 in 10.0 mi SW 8.1 mph - N/A   Overcast
1:55 PM 75.2 °F 61.5 °F 62% 29.95 in 10.0 mi West 5.8 mph - N/A   Mostly Cloudy
2:15 PM 76.1 °F 60.6 °F 59% 29.94 in 10.0 mi SW 5.8 mph - N/A   Scattered Clouds
2:35 PM 77.5 °F 60.3 °F 55% 29.93 in 10.0 mi WSW 10.4 mph - N/A   Scattered Clouds
2:55 PM 78.8 °F 58.8 °F 50% 29.91 in 10.0 mi WSW 9.2 mph - N/A   Scattered Clouds
3:15 PM 78.1 °F 58.5 °F 51% 29.91 in 10.0 mi WSW 8.1 mph - N/A   Scattered Clouds
3:55 PM 77.7 °F 59.0 °F 52% 29.89 in 10.0 mi WSW 6.9 mph - N/A   Clear
4:35 PM 77.5 °F 58.5 °F 52% 29.88 in 10.0 mi WSW 4.6 mph - N/A   Mostly Cloudy
5:15 PM 65.3 °F 58.5 °F 78% 29.87 in 0.5 mi WSW 9.2 mph 25.3 mph 0.32 in Rain , Thunderstorm Light Thunderstorms and Rain
5:35 PM 66.6 °F 61.0 °F 82% 29.86 in 10.0 mi ESE 3.5 mph - 0.32 in   Mostly Cloudy
5:55 PM 66.2 °F 61.5 °F 85% 29.85 in 10.0 mi SSE 3.5 mph - 0.32 in   Scattered Clouds
6:15 PM 68.0 °F 62.4 °F 82% 29.84 in 10.0 mi Calm Calm - N/A   Clear
6:35 PM 68.2 °F 61.3 °F 79% 29.84 in 10.0 mi Calm Calm - N/A   Clear
6:55 PM 68.7 °F 61.5 °F 78% 29.84 in 10.0 mi Calm Calm - N/A   Scattered Clouds
7:15 PM 66.6 °F 62.1 °F 85% 29.84 in 2.0 mi NW 4.6 mph - 0.12 in Rain , Thunderstorm Rain
7:35 PM 65.7 °F 62.8 °F 90% 29.82 in 5.0 mi SSE 3.5 mph - 0.15 in Rain , Thunderstorm Thunderstorms and Rain
7:55 PM 65.7 °F 63.3 °F 92% 29.84 in 5.0 mi Calm Calm - 0.17 in Rain , Thunderstorm Light Thunderstorms and Rain
8:15 PM 65.5 °F 62.8 °F 91% 29.84 in 2.5 mi Calm Calm - 0.04 in Rain Rain
8:35 PM 65.3 °F 62.6 °F 91% 29.85 in 4.0 mi NNE 4.6 mph - 0.09 in Rain , Thunderstorm Heavy Thunderstorms and Rain
8:55 PM 64.9 °F 62.8 °F 93% 29.85 in 3.0 mi North 12.7 mph - 0.17 in Rain , Thunderstorm Heavy Thunderstorms and Rain
9:15 PM 64.6 °F 62.1 °F 92% 29.84 in 3.0 mi NW 4.6 mph - 0.31 in Rain , Thunderstorm Rain
9:35 PM 64.8 °F 61.7 °F 90% 29.84 in 4.0 mi SSW 4.6 mph - 0.40 in Rain Rain
9:55 PM 64.4 °F 61.7 °F 91% 29.83 in 7.0 mi Calm Calm - 0.42 in Rain Light Rain
10:15 PM 64.4 °F 61.9 °F 92% 29.83 in 7.0 mi Calm Calm - 0.01 in   Overcast
10:35 PM 64.0 °F 61.7 °F 92% 29.83 in 7.0 mi Calm Calm - 0.01 in Thunderstorm Mostly Cloudy
10:55 PM 64.4 °F 62.4 °F 93% 29.82 in 5.0 mi Calm Calm - 0.03 in Rain , Thunderstorm Light Thunderstorms and Rain
11:15 PM 64.2 °F 62.2 °F 93% 29.84 in 2.0 mi WSW 11.5 mph 16.1 mph 0.21 in Rain , Thunderstorm Heavy Thunderstorms and Rain
11:35 PM 63.7 °F 57.6 °F 80% 29.82 in 7.0 mi Calm Calm - 0.27 in Rain , Thunderstorm Thunderstorms and Rain
11:55 PM 61.9 °F 58.8 °F 90% 29.80 in 2.5 mi ESE 4.6 mph - 0.39 in Rain , Thunderstorm Heavy Thunderstorms and Rain